Location: Huesca
(42.1318°N, 0.4078°W)
Time: 10:48:54
(UTC+02:00)

Vanguard 1 Rocket - Visible Passes

Search period start: 15 July 2024 00:00
Search period end: 25 July 2024 00:00
Orbit: 650 x 4219 km, 34.3° (Epoch: 14 July)

Date Brightness Start Highest point End Pass type
(mag) Time Alt. Az. Time Alt. Az. Time Alt. Az.
15 Jul 8.7 01:54:05 10° W 02:01:17 46° S 02:14:49 10° ESE visible
15 Jul 9.9 04:19:10 10° W 04:28:23 29° SSW 04:43:18 10° SSE visible
15 Jul 8.0 22:20:05 10° SW 22:24:22 32° SSE 22:30:36 10° E visible
16 Jul 8.3 00:42:59 10° WSW 00:48:58 48° S 00:52:17 35° SE visible
16 Jul 9.7 03:07:05 10° W 03:17:35 33° S 03:29:20 10° SE visible
16 Jul 10.5 05:35:25 10° WSW 05:42:58 16° SSW 05:52:53 10° S visible
16 Jul 7.9 23:32:01 10° WSW 23:37:04 44° S 23:42:34 19° ESE visible
17 Jul 9.0 01:55:34 10° W 02:12:57 14° SE 02:14:51 10° SE visible
17 Jul 10.2 04:30:27 22° SSW 04:30:27 22° SSW 04:41:35 10° SSE visible
17 Jul 7.8 22:21:13 10° SW 22:25:29 35° SSE 22:31:39 10° ESE visible
18 Jul 8.3 00:44:23 10° WSW 00:50:09 43° S 00:50:37 43° S visible
18 Jul 10.3 03:25:00 16° SSE 03:25:00 16° SSE 03:28:31 10° SSE visible
18 Jul 10.7 05:42:26 10° SW 05:44:00 10° SW 05:45:50 10° SSW visible
18 Jul 7.9 23:33:21 10° WSW 23:38:15 42° S 23:41:50 26° SE visible
19 Jul 9.5 01:57:09 10° WSW 02:19:08 - SE 01:58:58 19° WSW visible
19 Jul 10.8 04:36:32 13° S 04:36:32 13° S 04:39:00 10° S visible
19 Jul 7.7 22:22:24 10° WSW 22:26:39 37° S 22:32:40 10° ESE visible
20 Jul 8.5 00:45:51 10° WSW 00:50:20 36° SSW 00:50:20 36° SSW visible
20 Jul 8.0 23:34:44 10° WSW 23:39:28 39° S 23:41:48 30° SE visible
21 Jul 9.8 01:58:54 10° WSW 01:58:57 10° WSW 01:58:57 10° WSW visible
21 Jul 7.7 22:23:40 10° WSW 22:27:51 37° S 22:33:20 11° ESE visible
22 Jul 8.8 00:47:24 10° WSW 00:50:29 26° SW 00:50:29 26° SW visible
22 Jul 8.1 23:36:10 10° WSW 23:40:41 34° S 23:42:04 31° SSE visible
23 Jul 7.7 22:24:57 10° WSW 22:29:03 35° S 22:33:41 13° ESE visible
24 Jul 9.2 00:49:07 10° WSW 00:50:51 17° SW 00:50:51 17° SW visible
24 Jul 8.3 23:37:40 10° WSW 23:41:54 28° S 23:42:30 27° S visible
